Regional Weather Roundup
Issued by NWS

Home | Current Version | Previous Version | Graphics & Text | Print | Product List | Glossary On
Versions: 1 2 3 4 5 6 7 8 9 10 11 12 13 14 15 16 17 18 19 20 21 22 23 24 25 26 27 28 29 30 31 32 33 34 35 36 37 38 39 40 41 42 43 44 45 46 47 48 49 50
000
ASUS43 KFSD 260010
RWRSD

WEATHER ROUNDUP FOR SOUTH DAKOTA
NATIONAL WEATHER SERVICE SIOUX FALLS SD
600 PM CST TUE NOV 25 2014

NOTE: "FAIR" INDICATES FEW OR NO CLOUDS BELOW 12,000 FEET WITH NO
SIGNIFICANT WEATHER AND/OR OBSTRUCTIONS TO VISIBILITY.


SDZ001>005-009-010-012>017-260100-
NORTHWEST AND NORTH CENTRAL SOUTH DAKOTA

CITY           SKY/WX    TMP DP  RH WIND       PRES   REMARKS
BUFFALO          N/A     35  27  72 NW22      29.75R WCI  23
FAITH            N/A     36  29  75 NW15      29.78R
MOBRIDGE       CLOUDY    34  32  92 CALM      29.72S
$$

SDZ012>016-024>037-041>051-057-063-072>074-260100-
SOUTHWEST AND SOUTH CENTRAL SOUTH DAKOTA

CITY           SKY/WX    TMP DP  RH WIND       PRES   REMARKS
RAPID CTY ARPT CLOUDY    36  27  69 NW17G26   29.85R
PIERRE         FLURRIES  33  31  92 W6        29.77S WCI  28
CUSTER         CLOUDY    30  20  66 NW8G17    29.82R WCI  22
ELLSWORTH AFB  PTCLDY    36  27  68 NW25G31   29.83S
PHILIP         PTCLDY    36  31  82 NW20G26   29.81R
PINE RIDGE     CLOUDY    36  31  82 NW6       29.86R
SPEARFISH      FAIR      32  25  74 W18G30    29.87R WCI  20
WINNER         CLOUDY    40  28  62 W21G28    29.78R
$$

SDZ004>011-016>023-039-040-260100-
NORTHEAST SOUTH DAKOTA

CITY           SKY/WX    TMP DP  RH WIND       PRES   REMARKS
ABERDEEN       CLOUDY    32  28  85 SE13      29.81S WCI  22
WATERTOWN      CLOUDY    29  22  75 SE9       29.83F WCI  20
SISSETON         N/A     26  21  81 SE9       29.87F WCI  17
$$

SDZ017-020-022-023-036>040-048>070-260100-
SOUTHEAST SOUTH DAKOTA

CITY           SKY/WX    TMP DP  RH WIND       PRES   REMARKS
SIOUX FALLS    CLOUDY    34  22  61 SE14      29.86F WCI  25
HURON          CLOUDY    35  26  69 SE12      29.80F WCI  27
CHAMBERLAIN    CLOUDY    34  24  68 CALM      29.77S
MITCHELL       CLOUDY    36  27  69 SE10      29.81F
YANKTON        MOCLDY    41  25  52 SE10      29.84F
$$

ABBREVIATIONS USED IN REMARKS
   TC - TEMPERATURE IN CELSIUS
  WCI - WIND CHILL INDEX
   HX - HEAT INDEX
  VSB - VISIBILITY



USA.gov is the U.S. government's official web portal to all federal, state and local government web resources and services.